SL-14 DEB

Satellite information

Favourite Embed

Satellite Type and Status

DEBRISIN ORBIT

Key statistics

Satellite SL-14 DEB at a glance.

Uptime

13778

Days in orbit

Revolutions

≈ 13.9

Per day

Orbit

LEO

Low Earth Orbit

Inclination

82.5

Latest

Satellite identification and parameters

Extended collection of information and parameters for SL-14 DEB.

Object identification

Identified? True

Debris? True

Object name: SL-14 DEB

International designator: 1987-068CK

Object number (NORAD): 27628

Object ID (CCSDS): 27628

Country: COMMONWEALTH OF INDEPENDENT STATES (CIS)

Current information (Y/N): Y

RCS size: SMALL

Orbital parameters

Period: 103.312 minutes

Inclination: 82.5119 deg

SMA: 7293.35 km

Apoapsis: 935.214 km

Periapsis: 895.215 km

RAAN: 121.7256 deg

Eccentricy: 0.0027422

Argument of periapsis: 118.2125 deg

Mean anomaly: 242.1815 deg

Mean motion: 13.9383771 rev/day

Mean motion (dot): 0.00000468 rev/day2

B* drag term: 0.00034221 1/REarth

Two-line elements (TLE)

Creation date: May 3, 2025, 2:26 a.m.

Reference frame: TEME

Reference center: EARTH

Epoch: May 2, 2025, 5:23 p.m. UTC

TLE line 0: 0 SL-14 DEB

TLE line 1: 1 27628U 87068CK 25122.72459194 .00000468 00000-0 34221-3 0 9990

TLE line 2: 2 27628 82.5119 121.7256 0027422 118.2125 242.1815 13.93837710298884

Live tracking on map

Real-time ground track for satellite SL-14 DEB.

In-orbit conjunctions

A list of the most updated potential collisions computed for object SL-14 DEB.

Target Orbit TCA Probability of collision Miss distance Type
CZ-6A DEB LEO 2025-02-06 05:02:37 0.0001339432 190.0 (m) DEBRIS
LANDSAT 3 SSO 2024-10-06 00:20:43 0.0005155522 222.0 (m) PAYLOAD

Associated space launch

Second generation soviet meteorological satellite

SL-14 DEB was lifted into orbit during the mission ‘Tsiklon-3 | Meteor-2 16’, on board a Tsiklon-3 space rocket.

The launch took place on Aug. 18, 1987, 2:27 a.m. from 32/1.

For more information about the launch, click the button.

Launch to space Tsiklon-3 | Meteor-2 16
Tsiklon-3 | Meteor-2 16

Agency: N/A

Status: Launch Successful

Launch date: Aug. 18, 1987, 2:27 a.m. UTC

Rocket: Tsiklon-3

Launch pad: 32/1

Location: Plesetsk Cosmodrome, Russian Federation

...

Latest news about this satellite

There are no fresh news available about this satellite. Check back as we update our databases every day.


Newsletter sign-up

Weekly statistics, charts and insights to help you stay on top of the space industry.